Location: Aulagny
(45.1643°N, 4.3096°E)
Time: 11:59:16
(UTC+00:00)

ADEOS Rocket - Pass Details

Date: 21 October 2019
Orbit: 859 x 1306 km, 98.7° (Epoch: 13 November)

Event Time Altitude Azimuth Distance (km) Brightness Sun altitude
Rises 17:56:21 0° 25° (NNE) 4,279 6.1 -12.7°
Reaches altitude 10° 18:00:05 10° 41° (NE) 3,265 5.3 -13.4°
Maximum altitude 18:05:19 20° 85° (E) 2,503 4.5 -14.3°
Enters shadow 18:07:23 18° 107° (ESE) 2,589 4.6 -14.6°
Exits shadow 18:10:27 10° 131° (SE) 3,110 5.2 -15.2°
Sets 18:13:37 0° 147° (SSE) 3,950 5.9 -15.7°
